This is the latest recevied weather packets stored in our database for station/object W4TJP. If no packets are shown the sender has not sent any weather packets the latest 10 day(s).
| Time | Temp. | Humidity | Pressure | Rain* | Wind** | Luminosity | Snow |
|---|---|---|---|---|---|---|---|
| 1777904351 | 18.89° C | 56% | 1015.3 hPa | 0 mm | - | 523 W/m² | - |
| 1777904048 | 18.89° C | 58% | 1015.5 hPa | 0 mm | - | 544 W/m² | - |
| 1777903744 | 18.33° C | 57% | 1015.5 hPa | 0 mm | - | 530 W/m² | - |
| 1777903440 | 17.78° C | 59% | 1015.5 hPa | 0 mm | - | 497 W/m² | - |
| 1777903136 | 17.78° C | 59% | 1015.5 hPa | 0 mm | - | 463 W/m² | - |
| 1777902833 | 17.22° C | 61% | 1015.7 hPa | 0 mm | - | 371 W/m² | - |
| 1777902531 | 17.22° C | 63% | 1015.6 hPa | 0 mm | - | 259 W/m² | - |
| 1777902227 | 17.22° C | 59% | 1015.7 hPa | 0 mm | - | 216 W/m² | - |
| 1777901926 | 16.67° C | 61% | 1015.4 hPa | 0 mm | - | 324 W/m² | - |
| 1777901623 | 16.67° C | 61% | 1015.6 hPa | 0 mm | - | 271 W/m² | - |
| 1777901320 | 16.11° C | 63% | 1015.6 hPa | 0 mm | - | 280 W/m² | - |
| 1777901017 | 15.56° C | 63% | 1015.7 hPa | 0 mm | - | 228 W/m² | - |
| 1777900715 | 15.56° C | 64% | 1015.5 hPa | 0 mm | - | 171 W/m² | - |
| 1777900412 | 15° C | 67% | 1015.5 hPa | 0 mm | - | 185 W/m² | - |
| 1777900109 | 13.89° C | 70% | 1015.5 hPa | 0 mm | - | 95 W/m² | - |
| 1777899805 | 12.78° C | 83% | 1015.5 hPa | 0 mm | - | 151 W/m² | - |
| 1777899502 | 11.67° C | 83% | 1015.6 hPa | 0 mm | - | 94 W/m² | - |
| 1777899200 | 11.11° C | 85% | 1015.7 hPa | 0 mm | - | 112 W/m² | - |
| 1777898897 | 11.11° C | 92% | 1015.7 hPa | 0 mm | - | 100 W/m² | - |
| 1777898594 | 10.56° C | 90% | 1016 hPa | 0 mm | - | 105 W/m² | - |
| 1777898291 | 10° C | 94% | 1015.7 hPa | 0 mm | - | 87 W/m² | - |
| 1777897989 | 9.44° C | 94% | 1015.7 hPa | 0 mm | - | 87 W/m² | - |
| 1777897684 | 9.44° C | 93% | 1015.7 hPa | 0 mm | - | 79 W/m² | - |
| 1777897381 | 8.33° C | 97% | 1015.6 hPa | 0 mm | - | 72 W/m² | - |
| 1777897077 | 7.78° C | 98% | 1015.7 hPa | 0 mm | - | 63 W/m² | - |
* Rain latest hour (hover to see other rain measurements)
** Current wind speed in m/s (hover to see current wind gust speed)